Retour au catalogue

CZ-4B DEB

ActifSSO
NORAD 29539·DEBRIS·🇨🇳 China

Lancé Apr 26, 2006 depuis Taiyuan Satellite Launch Center

Loading…

Prochains Passages (prochaines 24 heures)

TLE

FraisSource: Space-Track

Époque: Sep 14, 2026, 10:11 UTC

1 29539U 06015F   26257.42457353  .00011765  00000-0  81025-3 0  9994
2 29539  97.7290 326.3684 0064945 115.8489 304.2076 15.04281591 82996

Suivez CZ-4B DEB en temps réel avec AllMySat

Download on the App Store